Weather History for KTCM - May, 2013

Change the Weather History Date:

Thursday, May 23, 2013

  Actual Average Record
Temperature  
Mean Temperature 46 °F -  
Max Temperature 52 °F 64 °F 90 °F (1969)
Min Temperature 41 °F 44 °F 34 °F (1966)
Degree Days  
Heating Degree Days 19    
Moisture  
Dew Point 45 °F    
Average Humidity 90    
Maximum Humidity 100    
Minimum Humidity 76    
Precipitation  
Precipitation 0.50 in - - ()
Sea Level Pressure  
Sea Level Pressure 30.00 in    
Wind  
Wind Speed 4 mph (SSE)    
Max Wind Speed 14 mph    
Max Gust Speed -    
Visibility 9 miles    
Events Rain    
Averages and records for this station are not official NWS values.
T = Trace of Precipitation, MM = Missing Value Source: NWS Daily Summary

Daily Weather History Graph

Daily Weather History Graph

Search for Another Location

Airport or City:

Trip Planner

Search our weather history database for the weather conditions in past years. The results will help you decide how hot, cold, wet, or windy it might be!

Date:

Astronomy

May. 23, 2013 Rise Set
Actual Time 5:24 AM PDT 8:49 PM PDT
Civil Twilight 4:47 AM PDT 9:26 PM PDT
Nautical Twilight 3:58 AM PDT 10:16 PM PDT
Astronomical Twilight 2:54 AM PDT 11:20 PM PDT
Moon 7:23 PM PDT (5/23) 4:20 AM PDT (5/23)
Length of Visible Light 16h 39m
Length of Day
15h 24m
Waxing Gibbous, 97% of the Moon is Illuminated
May 23
Waxing Gibbous
May 24
Full
May 31
Last Quarter
Jun 8
New
Jun 16
First Quarter

Hourly Weather History & Observations

Time (PDT) Temp. Windchill Dew Point Humidity Pressure Visibility Wind Dir Wind Speed Gust Speed Precip Events Conditions
12:58 AM 41.2 °F - 40.8 °F 99% 29.97 in 10.0 mi South 2.3 mph - N/A   Overcast
1:58 AM 42.3 °F - 42.1 °F 99% 29.98 in 10.0 mi SSW 1.2 mph - N/A   Overcast
1:59 AM 42.8 °F - 42.8 °F 100% 29.96 in 10.0 mi SSW 1.2 mph - N/A Rain Light Rain
2:39 AM 42.8 °F - 42.8 °F 100% 29.97 in 10.0 mi SSW 2.3 mph - N/A Rain Light Rain
2:58 AM 43.2 °F 41.5 °F 42.6 °F 98% 29.99 in 10.0 mi SE 3.5 mph - 0.02 in Rain Light Rain
3:14 AM 42.8 °F 41.1 °F 42.8 °F 100% 29.97 in 9.0 mi SSE 3.5 mph - N/A Rain Light Rain
3:19 AM 42.8 °F - 42.8 °F 100% 29.97 in 10.0 mi SSE 2.3 mph - N/A Rain Light Rain
3:24 AM 42.8 °F - 42.8 °F 100% 29.97 in 10.0 mi SE 2.3 mph - N/A Rain Light Rain
3:29 AM 42.8 °F - 42.8 °F 100% 29.97 in 10.0 mi ESE 2.3 mph - N/A Rain Light Rain
3:58 AM 43.5 °F - 43.2 °F 99% 29.99 in 9.0 mi East 2.3 mph - 0.06 in Rain Light Rain
4:55 AM 42.8 °F - 42.8 °F 100% 29.97 in 10.0 mi SE 2.3 mph - N/A   Overcast
4:57 AM 42.8 °F - 42.8 °F 100% 29.97 in 10.0 mi SE 2.3 mph - N/A   Light Drizzle
4:58 AM 43.3 °F - 43.2 °F 99% 29.99 in 10.0 mi SE 2.3 mph - 0.01 in   Light Drizzle
5:08 AM 42.8 °F - 42.8 °F 100% 29.97 in 10.0 mi ESE 2.3 mph - N/A Rain Light Rain
5:58 AM 44.6 °F 42.2 °F 42.8 °F 93% 29.99 in 7.0 mi SE 4.6 mph - 0.07 in Rain Light Rain
6:23 AM 44.6 °F - 42.8 °F 93% 29.97 in 10.0 mi Calm Calm - N/A Rain Light Rain
6:58 AM 44.6 °F - 43.9 °F 97% 30.00 in 7.0 mi Calm Calm - 0.05 in Rain Light Rain
7:58 AM 45.5 °F - 44.2 °F 95% 30.01 in 10.0 mi NE 2.3 mph - 0.02 in Rain Light Rain
8:22 AM 46.4 °F 45.2 °F 44.6 °F 93% 29.99 in 10.0 mi ENE 3.5 mph - N/A   Overcast
8:36 AM 46.4 °F - 44.6 °F 93% 30.00 in 10.0 mi East 1.2 mph - N/A Rain Light Rain
8:41 AM 46.4 °F - 44.6 °F 93% 30.00 in 10.0 mi ENE 2.3 mph - N/A Rain Light Rain
8:45 AM 46.4 °F - 44.6 °F 93% 30.00 in 10.0 mi East 2.3 mph - N/A   Overcast
8:54 AM 48.2 °F - 44.6 °F 87% 30.00 in 10.0 mi ENE 2.3 mph - N/A Rain Light Rain
8:58 AM 47.5 °F - 44.4 °F 89% 30.02 in 10.0 mi Variable 3.5 mph - 0.00 in Rain Light Rain
9:05 AM 48.2 °F - 44.6 °F 87% 30.00 in 10.0 mi ESE 4.6 mph - N/A   Overcast
9:08 AM 48.2 °F - 44.6 °F 87% 30.00 in 10.0 mi East 3.5 mph - N/A Rain Light Rain
9:25 AM 48.2 °F - 44.6 °F 87% 30.00 in 10.0 mi ENE 2.3 mph - N/A   Overcast
9:58 AM 48.9 °F - 44.1 °F 83% 30.01 in 10.0 mi ESE 2.3 mph - 0.00 in   Overcast
10:37 AM 50.0 °F - 44.6 °F 82% 29.99 in 10.0 mi Variable 2.3 mph - N/A Rain Light Rain
10:42 AM 50.0 °F - 44.6 °F 82% 29.99 in 4.0 mi SW 5.8 mph - N/A Rain Light Rain
10:44 AM 50.0 °F - 46.4 °F 87% 29.99 in 3.0 mi SW 3.5 mph - N/A Rain Light Rain
10:49 AM 50.0 °F - 44.6 °F 82% 29.99 in 2.0 mi West 2.3 mph - N/A Rain Light Rain
10:54 AM 50.0 °F - 46.4 °F 87% 29.99 in 4.0 mi WSW 4.6 mph - N/A Rain Light Rain
10:58 AM 49.5 °F - 46.0 °F 88% 30.01 in 9.0 mi Variable 3.5 mph - 0.05 in Rain Light Rain
10:59 AM 50.0 °F - 46.4 °F 87% 29.99 in 10.0 mi WSW 5.8 mph - N/A   Overcast
11:04 AM 50.0 °F - 46.4 °F 87% 29.99 in 10.0 mi SW 5.8 mph - N/A   Mostly Cloudy
11:07 AM 50.0 °F - 46.4 °F 87% 29.99 in 10.0 mi SW 5.8 mph - N/A Rain Light Rain
11:10 AM 50.0 °F - 46.4 °F 87% 29.99 in 10.0 mi SW 6.9 mph - N/A Rain Light Rain
11:20 AM 51.8 °F - 46.4 °F 82% 29.99 in 10.0 mi South 6.9 mph - N/A Rain Light Rain
11:25 AM 51.8 °F - 46.4 °F 82% 29.99 in 10.0 mi South 8.1 mph - N/A   Mostly Cloudy
11:40 AM 51.8 °F - 44.6 °F 76% 29.99 in 10.0 mi South 10.4 mph - N/A   Mostly Cloudy
11:50 AM 51.8 °F - 46.4 °F 82% 29.99 in 10.0 mi SSW 9.2 mph - N/A   Overcast
11:55 AM 51.8 °F - 44.6 °F 76% 30.00 in 10.0 mi South 13.8 mph - N/A   Overcast
11:58 AM 51.4 °F - 45.1 °F 79% 30.02 in 10.0 mi South 12.7 mph - 0.00 in   Overcast
12:03 PM 51.8 °F - 44.6 °F 76% 30.00 in 10.0 mi SSW 11.5 mph - N/A   Overcast
12:15 PM 50.0 °F - 44.6 °F 82% 30.00 in 10.0 mi South 9.2 mph - N/A Rain Light Rain
12:20 PM 50.0 °F - 44.6 °F 82% 30.00 in 10.0 mi South 8.1 mph - N/A Rain Light Rain
12:24 PM 50.0 °F - 44.6 °F 82% 30.00 in 10.0 mi South 6.9 mph - N/A   Overcast
12:29 PM 50.0 °F - 42.8 °F 76% 30.00 in 10.0 mi SSE 10.4 mph - N/A   Overcast
12:30 PM 50.0 °F - 42.8 °F 76% 30.00 in 10.0 mi SSE 11.5 mph - N/A Rain Light Rain
12:58 PM 49.3 °F - 45.1 °F 86% 30.03 in 10.0 mi South 9.2 mph - 0.01 in Rain Light Rain
1:58 PM 48.0 °F - 43.9 °F 86% 30.03 in 10.0 mi SSE 8.1 mph - 0.03 in Rain Light Rain
2:58 PM 48.0 °F - 44.6 °F 88% 30.04 in 10.0 mi SSE 5.8 mph - 0.05 in Rain Light Rain
3:58 PM 49.5 °F - 45.5 °F 86% 30.03 in 10.0 mi SSE 3.5 mph - 0.02 in Rain Light Rain
4:58 PM 50.9 °F - 47.3 °F 87% 30.02 in 10.0 mi ESE 2.3 mph - 0.01 in Rain Light Rain
5:53 PM 51.8 °F - 46.4 °F 82% 29.99 in 10.0 mi Variable 3.5 mph - N/A Rain Light Rain
5:58 PM 51.3 °F - 45.9 °F 82% 30.01 in 10.0 mi NE 4.6 mph - 0.00 in Rain Light Rain
6:08 PM 51.8 °F - 48.2 °F 88% 29.99 in 10.0 mi NE 4.6 mph - N/A Rain Light Rain
6:58 PM 50.4 °F - 48.7 °F 94% 30.00 in 10.0 mi NE 4.6 mph - 0.01 in Rain Light Rain
7:58 PM 50.0 °F - 48.7 °F 95% 30.00 in 10.0 mi ENE 3.5 mph - 0.02 in Rain Light Rain
8:58 PM 49.5 °F - 48.7 °F 97% 30.00 in 10.0 mi North 2.3 mph - 0.02 in Rain Light Rain
9:58 PM 49.1 °F - 48.6 °F 98% 30.01 in 10.0 mi NNW 3.5 mph - 0.02 in Rain Light Rain
10:58 PM 48.6 °F - 47.7 °F 97% 30.01 in 10.0 mi Variable 5.8 mph - 0.01 in Rain Light Rain
11:18 PM 48.2 °F - 48.2 °F 100% 29.99 in 10.0 mi NNW 2.3 mph - N/A Rain Light Rain
11:23 PM 48.2 °F - 46.4 °F 93% 29.99 in 10.0 mi Variable 3.5 mph - N/A Rain Light Rain
11:58 PM 48.4 °F - 47.8 °F 98% 30.01 in 9.0 mi ENE 1.2 mph - 0.02 in Rain Light Rain